Date String (YYYY-MM-DD hh:mm:ss) UTC,Instrument flags,Ambient pressure (hPa),Sample flow (lpm),Bypass flow (lpm),Sample temperature (°C),Ambient temperature (°C),ASC tube jacket temperature (°C),LED temperature (°C),Box temperature (°C),Sample RH (%),Span deviation,Mass concentration (μg/m³),Mass concentration (μg/m³),Mass concentration (μg/m³)
DateTimeUTC,F1_M11,P_M11,Q1_M11,Q2_M11,T1_M11,T2_M11,T3_M11,T4_M11,T5_M11,U1_M11,ZSPAN_M11,X2_M11,X0_M11,X1_M11
2023-02-11 22:00:00,,0822.6,4.99,0.00,26.3,25.0,00.0,35.0,28.2,11.8,0000.0,0010.66,0020.42,0009.64
2023-02-11 22:01:00,,0822.7,5.03,0.00,26.3,25.0,00.0,35.1,28.2,11.7,0000.0,0010.62,0019.68,0009.64
2023-02-11 22:02:00,,0822.6,4.98,0.00,26.3,25.0,00.0,35.1,28.2,11.7,0000.0,0010.55,0019.41,0009.62
2023-02-11 22:03:00,,0822.7,4.99,0.00,26.3,25.0,00.0,35.1,28.2,11.6,0000.0,0010.48,0019.04,0009.60
2023-02-11 22:04:00,,0822.6,5.03,0.00,26.3,25.0,00.0,35.1,28.2,11.6,0000.0,0010.42,0018.65,0009.57
2023-02-11 22:05:00,,0822.6,4.99,0.00,26.3,25.0,00.0,35.1,28.2,11.6,0000.0,0010.42,0017.91,0009.54
2023-02-11 22:06:00,,0822.6,5.02,0.00,26.3,25.0,00.0,35.1,28.2,11.6,0000.0,0010.39,0016.48,0009.53
2023-02-11 22:07:00,,0822.7,5.00,0.00,26.3,25.0,00.0,35.1,28.2,11.8,0000.0,0010.40,0016.33,0009.52
2023-02-11 22:08:00,,0822.6,5.01,0.00,26.3,25.0,00.0,35.1,28.2,11.7,0000.0,0010.39,0015.91,0009.51
2023-02-11 22:09:00,,0822.6,5.00,0.00,26.3,25.0,00.0,35.1,28.2,11.6,0000.0,0010.37,0015.73,0009.50
2023-02-11 22:10:00,,0822.7,4.98,0.00,26.3,25.0,00.0,35.1,28.2,11.6,0000.0,0010.31,0016.04,0009.47
2023-02-11 22:11:00,,0822.5,4.99,0.00,26.3,25.0,00.0,35.1,28.2,11.5,0000.0,0010.35,0016.36,0009.48
2023-02-11 22:12:00,,0822.6,5.00,0.00,26.3,25.0,00.0,35.1,28.2,11.6,0000.0,0010.36,0016.30,0009.48
2023-02-11 22:13:00,,0822.5,5.01,0.00,26.3,25.0,00.0,35.1,28.2,11.5,0000.0,0010.36,0016.16,0009.47
2023-02-11 22:14:00,,0822.6,5.00,0.00,26.3,25.0,00.0,35.1,28.2,11.5,0000.0,0010.38,0015.92,0009.47
2023-02-11 22:15:00,,0822.6,5.03,0.00,26.3,25.0,00.0,35.1,28.2,11.5,0000.0,0010.35,0015.94,0009.45
2023-02-11 22:16:00,,0822.6,5.00,0.00,26.3,25.0,00.0,35.1,28.2,11.5,0001.7,0010.35,0017.11,0009.44
2023-02-11 22:17:00,,0822.6,5.00,0.00,26.3,25.0,00.0,35.1,28.2,11.5,0001.2,0010.34,0017.23,0009.43
2023-02-11 22:18:00,,0822.5,5.00,0.00,26.3,25.0,00.0,35.1,28.2,11.4,0000.0,0010.26,0017.14,0009.40
2023-02-11 22:19:00,,0822.6,5.01,0.00,26.3,25.0,00.0,35.1,28.2,11.4,0000.0,0010.25,0017.16,0009.39
2023-02-11 22:20:00,,0822.6,4.99,0.00,26.3,25.0,00.0,35.1,28.2,11.4,0000.0,0010.20,0017.72,0009.37
2023-02-11 22:21:00,,0822.6,5.01,0.00,26.3,24.9,00.0,35.1,28.2,11.5,0000.0,0010.16,0017.33,0009.33
2023-02-11 22:22:00,,0822.6,4.99,0.00,26.3,24.9,00.0,35.1,28.2,11.3,0000.0,0010.04,0016.86,0009.27
2023-02-11 22:23:00,,0822.6,4.99,0.00,26.3,24.9,00.0,35.1,28.2,11.4,0000.0,0009.93,0017.24,0009.21
2023-02-11 22:24:00,,0822.6,5.02,0.00,26.3,25.0,00.0,35.1,28.2,11.5,0000.0,0009.85,0017.39,0009.14
2023-02-11 22:25:00,,0822.6,5.03,0.00,26.3,25.0,00.0,35.1,28.2,11.4,0000.0,0009.76,0017.19,0009.08
2023-02-11 22:26:00,,0822.5,5.02,0.00,26.3,25.0,00.0,35.1,28.2,11.3,0000.0,0009.70,0017.10,0009.01
2023-02-11 22:27:00,,0822.6,4.99,0.00,26.3,25.0,00.0,35.1,28.2,11.3,0002.6,0009.66,0016.04,0008.95
2023-02-11 22:28:00,,0822.5,4.99,0.00,26.4,25.0,00.0,35.1,28.2,11.4,0004.6,0009.59,0015.94,0008.89
2023-02-11 22:29:00,,0822.5,5.02,0.00,26.4,25.1,00.0,35.2,28.2,11.4,0004.5,0009.59,0016.06,0008.85
2023-02-11 22:30:00,,0822.5,4.98,0.00,26.4,25.1,00.0,35.2,28.2,11.6,0004.2,0009.50,0015.93,0008.79
2023-02-11 22:31:00,,0822.4,4.99,0.00,26.4,25.1,00.0,35.2,28.3,11.4,0004.1,0009.46,0015.83,0008.74
2023-02-11 22:32:00,,0822.5,4.97,0.00,26.4,25.1,00.0,35.2,28.3,11.7,0004.2,0009.44,0016.33,0008.72
2023-02-11 22:33:00,,0822.4,5.02,0.00,26.4,25.1,00.0,35.2,28.3,11.8,0001.8,0009.47,0016.82,0008.72
2023-02-11 22:34:00,,0822.4,5.02,0.00,26.4,25.1,00.0,35.2,28.2,11.4,0004.2,0009.50,0016.48,0008.71
2023-02-11 22:35:00,,0822.4,5.00,0.00,26.4,25.1,00.0,35.2,28.3,11.2,0002.5,0009.46,0016.14,0008.71
2023-02-11 22:36:00,,0822.4,5.00,0.00,26.4,25.1,00.0,35.2,28.3,11.2,0000.0,0009.49,0017.00,0008.69
2023-02-11 22:37:00,,0822.4,5.00,0.00,26.4,25.1,00.0,35.2,28.3,11.3,0000.0,0009.52,0017.17,0008.69
2023-02-11 22:38:00,,0822.4,5.01,0.00,26.4,25.2,00.0,35.2,28.3,11.7,0000.0,0009.53,0017.91,0008.70
2023-02-11 22:39:00,,0822.4,5.02,0.00,26.4,25.2,00.0,35.2,28.3,11.4,0000.0,0009.51,0017.95,0008.69
2023-02-11 22:40:00,,0822.4,5.00,0.00,26.4,25.2,00.0,35.2,28.3,11.3,0000.0,0009.47,0018.46,0008.69
2023-02-11 22:41:00,,0822.4,5.00,0.00,26.4,25.2,00.0,35.2,28.3,11.5,0000.0,0009.48,0019.07,0008.70
2023-02-11 22:42:00,,0822.4,4.98,0.00,26.5,25.2,00.0,35.2,28.3,11.6,0000.0,0009.54,0018.85,0008.71
2023-02-11 22:43:00,,0822.4,5.03,0.00,26.5,25.2,00.0,35.2,28.3,11.5,0000.0,0009.58,0018.81,0008.73
2023-02-11 22:44:00,,0822.4,5.00,0.00,26.5,25.2,00.0,35.2,28.3,11.2,0000.0,0009.52,0018.87,0008.70
2023-02-11 22:45:00,,0822.4,5.00,0.00,26.5,25.2,00.0,35.2,28.3,11.5,0000.0,0009.51,0018.75,0008.69
2023-02-11 22:46:00,,0822.4,5.00,0.00,26.5,25.2,00.0,35.2,28.3,11.8,0002.5,0009.55,0018.55,0008.73
2023-02-11 22:47:00,,0822.4,5.00,0.00,26.5,25.2,00.0,35.3,28.4,11.7,0002.7,0009.59,0017.92,0008.75
2023-02-11 22:48:00,,0822.3,5.03,0.00,26.5,25.2,00.0,35.3,28.4,11.7,0002.5,0009.61,0017.95,0008.80
2023-02-11 22:49:00,,0822.4,5.01,0.00,26.5,25.2,00.0,35.3,28.4,11.7,0002.0,0009.62,0018.47,0008.82
2023-02-11 22:50:00,,0822.4,4.98,0.00,26.5,25.2,00.0,35.3,28.4,11.8,0002.6,0009.68,0018.35,0008.86
2023-02-11 22:51:00,,0822.4,5.00,0.00,26.5,25.2,00.0,35.3,28.4,11.8,0000.6,0009.79,0018.09,0008.90
2023-02-11 22:52:00,,0822.4,5.00,0.00,26.5,25.3,00.0,35.3,28.4,11.8,0000.0,0009.89,0017.79,0008.97
2023-02-11 22:53:00,,0822.4,5.01,0.00,26.5,25.2,00.0,35.3,28.4,11.5,0000.0,0009.91,0018.52,0009.01
2023-02-11 22:54:00,,0822.4,5.00,0.00,26.5,25.2,00.0,35.3,28.4,11.5,0000.0,0009.91,0018.78,0009.04
2023-02-11 22:55:00,,0822.4,5.01,0.00,26.5,25.2,00.0,35.3,28.4,11.7,0000.0,0010.02,0018.78,0009.11
2023-02-11 22:56:00,,0822.4,4.99,0.00,26.5,25.3,00.0,35.3,28.4,11.7,0000.0,0010.08,0018.69,0009.20
2023-02-11 22:57:00,,0822.3,4.98,0.00,26.5,25.3,00.0,35.3,28.4,11.6,0000.0,0010.13,0018.70,0009.24
2023-02-11 22:58:00,,0822.4,5.03,0.00,26.5,25.3,00.0,35.3,28.4,11.6,0000.0,0010.15,0018.95,0009.27
2023-02-11 22:59:00,,0822.4,4.98,0.00,26.5,25.3,00.0,35.3,28.4,11.7,0000.0,0010.18,0019.13,0009.30
